Time,TemperatureF,DewpointF,PressureIn,WindDirection,WindDirectionDegrees,WindSpeedMPH,WindSpeedGustMPH,Humidity,HourlyPrecipIn,Conditions,Clouds,dailyrainin,SoftwareType,DateUTC
2013-03-04 00:06:00,59.0,47.7,29.86,SSW,202,9.8,-999.0,66,-99.99,,,0.00,Acu-Link.com,2013-03-04 06:06:00,
2013-03-04 00:21:00,58.6,47.3,29.85,South,180,14.5,-999.0,66,-99.99,,,0.00,Acu-Link.com,2013-03-04 06:21:00,
2013-03-04 00:36:00,58.8,46.7,29.85,ESE,112,11.4,-999.0,64,-99.99,,,0.00,Acu-Link.com,2013-03-04 06:36:00,
2013-03-04 00:51:00,58.8,46.7,29.84,SSE,157,9.4,-999.0,64,-99.99,,,0.00,Acu-Link.com,2013-03-04 06:51:00,
2013-03-04 01:07:00,58.6,46.5,29.83,SSE,157,5.8,-999.0,64,-99.99,,,0.00,Acu-Link.com,2013-03-04 07:07:00,
2013-03-04 01:22:00,58.1,46.4,29.83,SE,135,10.3,-999.0,65,-99.99,,,0.00,Acu-Link.com,2013-03-04 07:22:00,
2013-03-04 01:37:00,57.7,46.5,29.82,SW,225,11.9,-999.0,66,-99.99,,,0.00,Acu-Link.com,2013-03-04 07:37:00,
2013-03-04 01:52:00,57.4,46.5,29.82,NE,45,8.3,-999.0,67,-99.99,,,0.00,Acu-Link.com,2013-03-04 07:52:00,
2013-03-04 02:07:00,57.2,47.1,29.82,NNE,22,6.3,-999.0,69,-99.99,,,0.00,Acu-Link.com,2013-03-04 08:07:00,
2013-03-04 02:23:00,56.8,47.5,29.81,South,180,14.1,-999.0,71,-99.99,,,0.00,Acu-Link.com,2013-03-04 08:23:00,
2013-03-04 02:38:00,56.7,47.7,29.80,SW,225,7.4,-999.0,72,-99.99,,,0.00,Acu-Link.com,2013-03-04 08:38:00,
2013-03-04 02:53:00,56.7,48.1,29.80,WNW,292,6.7,-999.0,73,-99.99,,,0.00,Acu-Link.com,2013-03-04 08:53:00,
2013-03-04 03:19:00,56.5,47.9,29.79,WSW,247,8.9,-999.0,73,-99.99,,,0.00,Acu-Link.com,2013-03-04 09:19:00,
2013-03-04 03:35:00,56.5,48.3,29.78,South,180,12.5,-999.0,74,-99.99,,,0.00,Acu-Link.com,2013-03-04 09:35:00,
2013-03-04 03:50:00,55.9,48.5,29.78,SSW,202,6.7,-999.0,76,-99.99,,,0.00,Acu-Link.com,2013-03-04 09:50:00,
2013-03-04 04:05:00,55.8,48.7,29.77,WSW,247,7.4,-999.0,77,-99.99,,,0.00,Acu-Link.com,2013-03-04 10:05:00,
2013-03-04 04:20:00,55.6,48.5,29.77,SE,135,8.9,-999.0,77,-99.99,,,0.00,Acu-Link.com,2013-03-04 10:20:00,
2013-03-04 04:35:00,55.6,48.5,29.78,SW,225,6.7,-999.0,77,-99.99,,,0.00,Acu-Link.com,2013-03-04 10:35:00,
2013-03-04 04:50:00,55.4,48.3,29.78,SSW,202,5.8,-999.0,77,-99.99,,,0.00,Acu-Link.com,2013-03-04 10:50:00,
2013-03-04 05:06:00,55.6,48.8,29.78,WSW,247,8.9,-999.0,78,-99.99,,,0.00,Acu-Link.com,2013-03-04 11:06:00,
2013-03-04 05:21:00,55.6,49.2,29.79,NW,315,7.8,-999.0,79,-99.99,,,0.00,Acu-Link.com,2013-03-04 11:21:00,
2013-03-04 05:36:00,55.8,49.7,29.78,West,270,5.8,-999.0,80,-99.99,,,0.00,Acu-Link.com,2013-03-04 11:36:00,
2013-03-04 05:51:00,56.1,50.0,29.78,WSW,247,7.4,-999.0,80,-99.99,,,0.00,Acu-Link.com,2013-03-04 11:51:00,
2013-03-04 06:06:00,56.1,50.4,29.78,SW,225,8.9,-999.0,81,-99.99,,,0.00,Acu-Link.com,2013-03-04 12:06:00,
2013-03-04 06:22:00,55.9,50.9,29.78,South,180,5.8,-999.0,83,-99.99,,,0.00,Acu-Link.com,2013-03-04 12:22:00,
2013-03-04 06:37:00,55.9,51.2,29.77,WSW,247,8.3,-999.0,84,-99.99,,,0.00,Acu-Link.com,2013-03-04 12:37:00,
2013-03-04 06:52:00,55.9,51.5,29.77,South,180,10.3,-999.0,85,-99.99,,,0.00,Acu-Link.com,2013-03-04 12:52:00,
2013-03-04 07:07:00,56.1,52.0,29.77,ESE,112,8.3,-999.0,86,-99.99,,,0.00,Acu-Link.com,2013-03-04 13:07:00,
2013-03-04 07:23:00,56.1,52.0,29.77,South,180,7.4,-999.0,86,-99.99,,,0.00,Acu-Link.com,2013-03-04 13:23:00,
2013-03-04 07:38:00,56.3,52.5,29.76,SE,135,10.3,-999.0,87,-99.99,,,0.00,Acu-Link.com,2013-03-04 13:38:00,
2013-03-04 07:53:00,56.8,53.0,29.76,WSW,247,6.7,-999.0,87,-99.99,,,0.00,Acu-Link.com,2013-03-04 13:53:00,
2013-03-04 08:08:00,57.0,53.2,29.77,SE,135,7.4,-999.0,87,-99.99,,,0.00,Acu-Link.com,2013-03-04 14:08:00,
2013-03-04 08:23:00,57.9,53.4,29.76,WNW,292,6.3,-999.0,85,-99.99,,,0.00,Acu-Link.com,2013-03-04 14:23:00,
2013-03-04 08:39:00,60.6,54.1,29.77,SW,225,9.8,-999.0,79,-99.99,,,0.00,Acu-Link.com,2013-03-04 14:39:00,
2013-03-04 08:54:00,60.8,53.2,29.77,West,270,11.4,-999.0,76,-99.99,,,0.00,Acu-Link.com,2013-03-04 14:54:00,
2013-03-04 09:09:00,61.7,53.7,29.75,SW,225,6.3,-999.0,75,-99.99,,,0.00,Acu-Link.com,2013-03-04 15:09:00,
2013-03-04 09:24:00,64.6,54.2,29.76,WSW,247,4.7,-999.0,69,-99.99,,,0.00,Acu-Link.com,2013-03-04 15:24:00,
2013-03-04 09:39:00,64.8,53.9,29.76,WSW,247,6.7,-999.0,68,-99.99,,,0.00,Acu-Link.com,2013-03-04 15:39:00,
2013-03-04 09:55:00,64.4,53.2,29.75,South,180,11.4,-999.0,67,-99.99,,,0.00,Acu-Link.com,2013-03-04 15:55:00,
2013-03-04 10:10:00,66.4,53.8,29.75,West,270,7.4,-999.0,64,-99.99,,,0.00,Acu-Link.com,2013-03-04 16:10:00,
2013-03-04 10:25:00,66.9,53.5,29.75,WSW,247,11.4,-999.0,62,-99.99,,,0.00,Acu-Link.com,2013-03-04 16:25:00,
2013-03-04 10:40:00,67.1,53.2,29.74,North,0,9.4,-999.0,61,-99.99,,,0.00,Acu-Link.com,2013-03-04 16:40:00,
2013-03-04 10:55:00,66.7,52.9,29.74,SSW,202,7.4,-999.0,61,-99.99,,,0.00,Acu-Link.com,2013-03-04 16:55:00,
2013-03-04 11:11:00,67.1,53.2,29.74,South,180,7.4,-999.0,61,-99.99,,,0.00,Acu-Link.com,2013-03-04 17:11:00,
2013-03-04 11:26:00,68.7,53.8,29.74,SSW,202,8.9,-999.0,59,-99.99,,,0.00,Acu-Link.com,2013-03-04 17:26:00,
2013-03-04 11:41:00,72.0,53.9,29.73,West,270,8.3,-999.0,53,-99.99,,,0.00,Acu-Link.com,2013-03-04 17:41:00,
2013-03-04 11:56:00,74.8,54.9,29.73,South,180,7.4,-999.0,50,-99.99,,,0.00,Acu-Link.com,2013-03-04 17:56:00,
2013-03-04 12:12:00,74.1,52.6,29.72,SW,225,7.8,-999.0,47,-99.99,,,0.00,Acu-Link.com,2013-03-04 18:12:00,
2013-03-04 12:27:00,75.4,51.3,29.71,South,180,9.8,-999.0,43,-99.99,,,0.00,Acu-Link.com,2013-03-04 18:27:00,
2013-03-04 12:42:00,77.5,52.0,29.71,WSW,247,13.0,-999.0,41,-99.99,,,0.00,Acu-Link.com,2013-03-04 18:42:00,
2013-03-04 12:57:00,79.0,53.2,29.70,West,270,5.1,-999.0,41,-99.99,,,0.00,Acu-Link.com,2013-03-04 18:57:00,
2013-03-04 13:12:00,79.0,53.2,29.69,SSW,202,7.4,-999.0,41,-99.99,,,0.00,Acu-Link.com,2013-03-04 19:12:00,
2013-03-04 13:28:00,80.4,51.7,29.68,WSW,247,7.8,-999.0,37,-99.99,,,0.00,Acu-Link.com,2013-03-04 19:28:00,
2013-03-04 13:43:00,80.8,52.1,29.67,SW,225,5.8,-999.0,37,-99.99,,,0.00,Acu-Link.com,2013-03-04 19:43:00,
2013-03-04 13:58:00,83.5,47.9,29.66,West,270,9.8,-999.0,29,-99.99,,,0.00,Acu-Link.com,2013-03-04 19:58:00,
2013-03-04 14:13:00,82.2,49.4,29.65,SW,225,7.4,-999.0,32,-99.99,,,0.00,Acu-Link.com,2013-03-04 20:13:00,
2013-03-04 14:28:00,83.3,46.8,29.65,SW,225,7.4,-999.0,28,-99.99,,,0.00,Acu-Link.com,2013-03-04 20:28:00,
2013-03-04 14:44:00,83.1,52.6,29.65,SW,225,10.3,-999.0,35,-99.99,,,0.00,Acu-Link.com,2013-03-04 20:44:00,
2013-03-04 14:59:00,81.9,54.4,29.65,ESE,112,12.5,-999.0,39,-99.99,,,0.00,Acu-Link.com,2013-03-04 20:59:00,
2013-03-04 15:14:00,81.7,54.3,29.65,South,180,8.3,-999.0,39,-99.99,,,0.00,Acu-Link.com,2013-03-04 21:14:00,
2013-03-04 15:29:00,81.3,54.7,29.64,WSW,247,10.3,-999.0,40,-99.99,,,0.00,Acu-Link.com,2013-03-04 21:29:00,
2013-03-04 15:44:00,81.3,54.7,29.65,WSW,247,11.4,-999.0,40,-99.99,,,0.00,Acu-Link.com,2013-03-04 21:44:00,
2013-03-04 16:00:00,80.8,54.9,29.65,SSW,202,10.3,-999.0,41,-99.99,,,0.00,Acu-Link.com,2013-03-04 22:00:00,
2013-03-04 16:15:00,79.5,54.4,29.64,SW,225,7.8,-999.0,42,-99.99,,,0.00,Acu-Link.com,2013-03-04 22:15:00,
2013-03-04 16:30:00,78.3,55.2,29.65,SSW,202,6.3,-999.0,45,-99.99,,,0.00,Acu-Link.com,2013-03-04 22:30:00,
2013-03-04 16:45:00,78.8,55.6,29.64,NNW,337,9.8,-999.0,45,-99.99,,,0.00,Acu-Link.com,2013-03-04 22:45:00,
2013-03-04 17:01:00,78.8,55.0,29.64,West,270,6.3,-999.0,44,-99.99,,,0.00,Acu-Link.com,2013-03-04 23:01:00,
2013-03-04 17:16:00,78.6,53.6,29.65,West,270,8.3,-999.0,42,-99.99,,,0.00,Acu-Link.com,2013-03-04 23:16:00,
2013-03-04 17:31:00,78.4,53.4,29.65,NNE,22,6.3,-999.0,42,-99.99,,,0.00,Acu-Link.com,2013-03-04 23:31:00,
2013-03-04 17:46:00,77.0,53.4,29.66,West,270,3.8,-999.0,44,-99.99,,,0.00,Acu-Link.com,2013-03-04 23:46:00,
2013-03-04 18:01:00,75.6,54.5,29.66,SSE,157,8.9,-999.0,48,-99.99,,,0.00,Acu-Link.com,2013-03-05 00:01:00,
2013-03-04 18:17:00,73.8,55.0,29.66,WSW,247,7.4,-999.0,52,-99.99,,,0.00,Acu-Link.com,2013-03-05 00:17:00,
2013-03-04 18:32:00,72.7,55.1,29.66,WNW,292,7.8,-999.0,54,-99.99,,,0.00,Acu-Link.com,2013-03-05 00:32:00,
2013-03-04 18:47:00,70.5,54.5,29.66,SSE,157,5.1,-999.0,57,-99.99,,,0.00,Acu-Link.com,2013-03-05 00:47:00,
2013-03-04 19:02:00,68.7,54.3,29.66,SSE,157,3.1,-999.0,60,-99.99,,,0.00,Acu-Link.com,2013-03-05 01:02:00,
2013-03-04 19:17:00,68.2,54.7,29.66,SSE,157,4.7,-999.0,62,-99.99,,,0.00,Acu-Link.com,2013-03-05 01:17:00,
2013-03-04 19:33:00,68.4,54.4,29.67,SE,135,8.3,-999.0,61,-99.99,,,0.00,Acu-Link.com,2013-03-05 01:33:00,
2013-03-04 19:48:00,68.9,54.0,29.67,South,180,4.7,-999.0,59,-99.99,,,0.00,Acu-Link.com,2013-03-05 01:48:00,
2013-03-04 20:03:00,67.5,54.0,29.67,SW,225,3.8,-999.0,62,-99.99,,,0.00,Acu-Link.com,2013-03-05 02:03:00,
2013-03-04 20:18:00,67.6,54.1,29.67,ESE,112,6.3,-999.0,62,-99.99,,,0.00,Acu-Link.com,2013-03-05 02:18:00,
2013-03-04 20:33:00,68.0,53.6,29.67,South,180,3.1,-999.0,60,-99.99,,,0.00,Acu-Link.com,2013-03-05 02:33:00,
2013-03-04 20:49:00,68.7,53.8,29.67,SSW,202,5.8,-999.0,59,-99.99,,,0.00,Acu-Link.com,2013-03-05 02:49:00,
2013-03-04 21:04:00,69.4,53.5,29.68,South,180,2.7,-999.0,57,-99.99,,,0.00,Acu-Link.com,2013-03-05 03:04:00,
2013-03-04 21:19:00,69.6,53.7,29.69,SSW,202,8.3,-999.0,57,-99.99,,,0.00,Acu-Link.com,2013-03-05 03:19:00,
2013-03-04 21:34:00,68.9,54.0,29.69,South,180,5.8,-999.0,59,-99.99,,,0.00,Acu-Link.com,2013-03-05 03:34:00,
2013-03-04 21:49:00,67.8,54.3,29.69,SSW,202,10.3,-999.0,62,-99.99,,,0.00,Acu-Link.com,2013-03-05 03:49:00,
2013-03-04 22:05:00,66.7,54.6,29.70,SE,135,6.3,-999.0,65,-99.99,,,0.00,Acu-Link.com,2013-03-05 04:05:00,
2013-03-04 22:20:00,66.4,55.9,29.70,SW,225,8.9,-999.0,69,-99.99,,,0.00,Acu-Link.com,2013-03-05 04:20:00,
2013-03-04 22:35:00,66.2,56.9,29.70,SE,135,4.7,-999.0,72,-99.99,,,0.00,Acu-Link.com,2013-03-05 04:35:00,
2013-03-04 22:50:00,65.8,58.1,29.71,NE,45,5.1,-999.0,76,-99.99,,,0.00,Acu-Link.com,2013-03-05 04:50:00,
2013-03-04 23:06:00,65.5,58.8,29.71,SW,225,5.1,-999.0,79,-99.99,,,0.00,Acu-Link.com,2013-03-05 05:06:00,
2013-03-04 23:21:00,65.3,59.3,29.72,ENE,67,5.1,-999.0,81,-99.99,,,0.00,Acu-Link.com,2013-03-05 05:21:00,
2013-03-04 23:36:00,64.4,59.1,29.72,West,270,3.8,-999.0,83,-99.99,,,0.00,Acu-Link.com,2013-03-05 05:36:00,
2013-03-04 23:51:00,64.2,56.9,29.78,West,270,3.8,-999.0,77,-99.99,,,0.00,Acu-Link.com,2013-03-05 05:51:00,